RPA3577 KEWR-KMSY

Flight info

Callsign RPA3577
Flight time 3h 29m
Altitude 28000
Route LANNA J48 CSN FANPO Q40 NIOLA MERDN TRSSH1
Aircraft E75L/M-SDE3GILORVW/S

Departure

Time 2026-05-07 14:22
Airport Newark Liberty International Airport (KEWR)

Arrival

Time 2026-05-07 17:51
Airport Louis Armstrong New Orleans International Airport (KMSY)
Time Latitude Longitude Altitude Speed Heading
2026-05-07 13:57 40.69560 -74.17236 20 ft 0 kts 317°
2026-05-07 14:12 40.69548 -74.17221 20 ft 4 kts 317°
2026-05-07 14:13 40.69529 -74.17195 20 ft 4 kts 308°
2026-05-07 14:13 40.69516 -74.17165 20 ft 4 kts 287°
2026-05-07 14:13 40.69514 -74.17140 20 ft 1 kts 263°
2026-05-07 14:13 40.69515 -74.17136 20 ft 0 kts 263°
2026-05-07 14:15 40.69514 -74.17136 20 ft 0 kts 263°
2026-05-07 14:15 40.69513 -74.17147 20 ft 2 kts 262°
2026-05-07 14:16 40.69504 -74.17168 20 ft 3 kts 211°
2026-05-07 14:16 40.69478 -74.17164 22 ft 5 kts 154°
2026-05-07 14:16 40.69456 -74.17121 20 ft 7 kts 102°
2026-05-07 14:16 40.69438 -74.17068 22 ft 7 kts 169°
2026-05-07 14:17 40.69382 -74.17069 22 ft 9 kts 187°
2026-05-07 14:17 40.69313 -74.17099 20 ft 12 kts 204°
2026-05-07 14:17 40.69234 -74.17147 20 ft 14 kts 205°
2026-05-07 14:17 40.69141 -74.17207 20 ft 16 kts 207°
2026-05-07 14:18 40.69034 -74.17268 21 ft 14 kts 208°
2026-05-07 14:18 40.68953 -74.17325 21 ft 13 kts 197°
2026-05-07 14:18 40.68864 -74.17383 20 ft 15 kts 206°
2026-05-07 14:18 40.68761 -74.17447 20 ft 17 kts 206°
2026-05-07 14:19 40.68651 -74.17518 20 ft 18 kts 204°
2026-05-07 14:19 40.68548 -74.17584 21 ft 17 kts 207°
2026-05-07 14:19 40.68443 -74.17651 20 ft 17 kts 205°
2026-05-07 14:19 40.68356 -74.17706 22 ft 12 kts 205°
2026-05-07 14:20 40.68278 -74.17691 21 ft 12 kts 153°
2026-05-07 14:20 40.68212 -74.17630 21 ft 11 kts 120°
2026-05-07 14:20 40.68187 -74.17548 19 ft 6 kts 77°
2026-05-07 14:20 40.68219 -74.17512 20 ft 7 kts 26°
2026-05-07 14:21 40.68358 -74.17424 21 ft 50 kts 26°
2026-05-07 14:21 40.68858 -74.17107 21 ft 109 kts 26°
2026-05-07 14:21 40.69697 -74.16572 21 ft 158 kts 25°
2026-05-07 14:21 40.70755 -74.15910 411 ft 175 kts 23°
2026-05-07 14:22 40.71829 -74.15030 942 ft 192 kts 37°
2026-05-07 14:22 40.72818 -74.13857 1609 ft 191 kts 41°
2026-05-07 14:22 40.73770 -74.12575 2107 ft 202 kts 42°
2026-05-07 14:22 40.74782 -74.11202 2662 ft 214 kts 41°
2026-05-07 14:23 40.75872 -74.09829 3188 ft 222 kts 34°
2026-05-07 14:23 40.77302 -74.08965 3181 ft 230 kts
2026-05-07 14:23 40.78857 -74.09199 3103 ft 224 kts 335°
2026-05-07 14:23 40.80107 -74.10406 3132 ft 231 kts 310°
2026-05-07 14:24 40.80859 -74.12339 3505 ft 245 kts 285°
2026-05-07 14:24 40.81005 -74.14569 4162 ft 252 kts 265°
2026-05-07 14:24 40.80669 -74.16838 4915 ft 253 kts 259°
2026-05-07 14:24 40.80214 -74.19094 5604 ft 254 kts 257°
2026-05-07 14:25 40.79726 -74.21336 6287 ft 255 kts 256°
2026-05-07 14:25 40.79239 -74.23581 6952 ft 255 kts 256°
2026-05-07 14:25 40.78744 -74.25842 7547 ft 258 kts 255°
2026-05-07 14:25 40.78228 -74.28118 8182 ft 259 kts 254°
2026-05-07 14:26 40.77698 -74.30405 8810 ft 261 kts 253°
2026-05-07 14:26 40.77154 -74.32695 9420 ft 262 kts 252°
2026-05-07 14:26 40.76602 -74.34981 10077 ft 260 kts 252°
2026-05-07 14:26 40.76095 -74.37096 10374 ft 272 kts 252°
2026-05-07 14:27 40.75471 -74.39450 10448 ft 290 kts 249°
2026-05-07 14:27 40.74705 -74.41981 10626 ft 303 kts 248°
2026-05-07 14:27 40.73934 -74.44578 11274 ft 301 kts 250°
2026-05-07 14:27 40.73249 -74.47155 12012 ft 296 kts 251°
2026-05-07 14:28 40.72619 -74.49710 12719 ft 293 kts 251°
2026-05-07 14:28 40.71987 -74.52289 13251 ft 295 kts 251°
2026-05-07 14:28 40.71312 -74.54844 13753 ft 297 kts 250°
2026-05-07 14:28 40.70583 -74.57401 14301 ft 297 kts 249°
2026-05-07 14:29 40.69843 -74.59951 14862 ft 300 kts 249°
2026-05-07 14:29 40.69099 -74.62527 15440 ft 300 kts 249°
2026-05-07 14:29 40.68351 -74.65119 16004 ft 302 kts 249°
2026-05-07 14:29 40.67589 -74.67687 16499 ft 304 kts 248°
2026-05-07 14:30 40.66830 -74.70164 17005 ft 305 kts 248°
2026-05-07 14:30 40.66028 -74.72766 17589 ft 305 kts 248°
2026-05-07 14:30 40.65224 -74.75363 18120 ft 307 kts 247°
2026-05-07 14:30 40.64396 -74.77959 18581 ft 308 kts 247°
2026-05-07 14:31 40.63564 -74.80555 19132 ft 309 kts 247°
2026-05-07 14:31 40.62724 -74.83174 19706 ft 310 kts 248°
2026-05-07 14:31 40.61878 -74.85792 20307 ft 311 kts 248°
2026-05-07 14:31 40.61309 -74.87529 20687 ft 312 kts 247°
2026-05-07 14:32 40.60144 -74.91008 21411 ft 314 kts 247°
2026-05-07 14:32 40.59245 -74.93627 21975 ft 314 kts 246°
2026-05-07 14:32 40.58339 -74.96236 22462 ft 315 kts 247°
2026-05-07 14:32 40.57415 -74.98852 22956 ft 315 kts 246°
2026-05-07 14:33 40.56800 -75.00578 23224 ft 317 kts 246°
2026-05-07 14:33 40.55752 -75.03072 23685 ft 321 kts 238°
2026-05-07 14:33 40.54268 -75.05315 24119 ft 323 kts 235°
2026-05-07 14:33 40.52874 -75.07626 24556 ft 323 kts 237°
2026-05-07 14:34 40.51520 -75.09979 25002 ft 324 kts 237°
2026-05-07 14:34 40.50128 -75.12316 25473 ft 324 kts 237°
2026-05-07 14:34 40.48709 -75.14602 26090 ft 320 kts 236°
2026-05-07 14:34 40.47297 -75.16824 26704 ft 315 kts 236°
2026-05-07 14:35 40.45896 -75.19004 27235 ft 311 kts 236°
2026-05-07 14:35 40.44522 -75.21173 27748 ft 307 kts 236°
2026-05-07 14:35 40.43200 -75.23264 28232 ft 303 kts 236°
2026-05-07 14:35 40.41824 -75.25454 28152 ft 316 kts 236°
2026-05-07 14:36 40.40404 -75.27704 28004 ft 323 kts 236°
2026-05-07 14:36 40.37524 -75.32207 28044 ft 323 kts 236°
2026-05-07 14:37 40.34636 -75.36726 28038 ft 323 kts 236°
2026-05-07 14:37 40.30319 -75.43485 28040 ft 323 kts 236°
2026-05-07 14:38 40.27442 -75.47981 27968 ft 324 kts 236°
2026-05-07 14:38 40.25995 -75.50236 27982 ft 322 kts 236°
2026-05-07 14:38 40.24555 -75.52487 27996 ft 323 kts 236°
2026-05-07 14:39 40.23116 -75.54732 27987 ft 323 kts 236°
2026-05-07 14:39 40.21818 -75.57108 27999 ft 317 kts 242°
2026-05-07 14:39 40.19363 -75.61898 27980 ft 319 kts 240°
2026-05-07 14:40 40.18116 -75.64279 27985 ft 318 kts 240°
2026-05-07 14:40 40.16882 -75.66690 27992 ft 319 kts 240°
2026-05-07 14:40 40.15659 -75.69110 27970 ft 319 kts 241°
2026-05-07 14:40 40.14451 -75.71505 27987 ft 319 kts 241°
2026-05-07 14:41 40.13214 -75.73947 27969 ft 319 kts 241°
2026-05-07 14:41 40.11988 -75.76364 27993 ft 319 kts 240°
2026-05-07 14:41 40.10759 -75.78782 27971 ft 319 kts 240°
2026-05-07 14:41 40.09535 -75.81192 27984 ft 318 kts 241°
2026-05-07 14:42 40.08307 -75.83612 27971 ft 319 kts 241°
2026-05-07 14:42 40.07139 -75.85927 27974 ft 318 kts 241°
2026-05-07 14:42 40.05920 -75.88354 27970 ft 318 kts 241°
2026-05-07 14:42 40.04718 -75.90730 27972 ft 318 kts 241°
2026-05-07 14:43 40.03481 -75.93170 27978 ft 319 kts 240°
2026-05-07 14:43 40.02280 -75.95540 27975 ft 319 kts 241°
2026-05-07 14:43 40.01058 -75.97951 27971 ft 319 kts 241°
2026-05-07 14:43 39.99833 -76.00367 27974 ft 319 kts 241°
2026-05-07 14:44 39.98624 -76.02746 27969 ft 319 kts 240°
2026-05-07 14:44 39.97398 -76.05156 27971 ft 319 kts 241°
2026-05-07 14:44 39.96173 -76.07565 27993 ft 319 kts 240°
2026-05-07 14:44 39.94943 -76.09974 27974 ft 319 kts 240°
2026-05-07 14:45 39.93713 -76.12380 27983 ft 319 kts 240°
2026-05-07 14:45 39.92487 -76.14786 27989 ft 319 kts 240°
2026-05-07 14:45 39.91256 -76.17198 27980 ft 319 kts 240°
2026-05-07 14:45 39.90032 -76.19597 27982 ft 319 kts 240°
2026-05-07 14:46 39.88796 -76.22016 27977 ft 319 kts 240°
2026-05-07 14:46 39.87569 -76.24406 27982 ft 319 kts 240°
2026-05-07 14:46 39.86332 -76.26815 27983 ft 319 kts 240°
2026-05-07 14:46 39.85099 -76.29216 27982 ft 319 kts 240°
2026-05-07 14:47 39.83866 -76.31622 27997 ft 319 kts 240°
2026-05-07 14:47 39.82632 -76.34028 27987 ft 319 kts 240°
2026-05-07 14:47 39.81396 -76.36429 27984 ft 318 kts 240°
2026-05-07 14:47 39.80164 -76.38817 28002 ft 319 kts 240°
2026-05-07 14:48 39.78927 -76.41219 27987 ft 320 kts 240°
2026-05-07 14:48 39.77711 -76.43577 27976 ft 319 kts 240°
2026-05-07 14:48 39.76479 -76.45965 27982 ft 319 kts 240°
2026-05-07 14:48 39.75247 -76.48351 27985 ft 319 kts 240°
2026-05-07 14:49 39.74003 -76.50760 27982 ft 320 kts 240°
2026-05-07 14:49 39.72764 -76.53159 27983 ft 319 kts 240°
2026-05-07 14:49 39.71527 -76.55550 27982 ft 320 kts 240°
2026-05-07 14:49 39.70291 -76.57935 27981 ft 320 kts 240°
2026-05-07 14:50 39.69044 -76.60343 27994 ft 320 kts 240°
2026-05-07 14:50 39.67797 -76.62747 27992 ft 320 kts 240°
2026-05-07 14:50 39.66550 -76.65152 27992 ft 321 kts 240°
2026-05-07 14:50 39.65304 -76.67548 27994 ft 320 kts 241°
2026-05-07 14:51 39.64060 -76.69941 27991 ft 320 kts 240°
2026-05-07 14:51 39.62813 -76.72338 27993 ft 320 kts 240°
2026-05-07 14:51 39.61567 -76.74732 27988 ft 320 kts 240°
2026-05-07 14:51 39.60323 -76.77119 27996 ft 320 kts 240°
2026-05-07 14:52 39.59074 -76.79515 27987 ft 320 kts 240°
2026-05-07 14:52 39.57842 -76.81878 27996 ft 320 kts 240°
2026-05-07 14:52 39.56589 -76.84279 27990 ft 320 kts 240°
2026-05-07 14:52 39.55343 -76.86660 27990 ft 320 kts 240°
2026-05-07 14:53 39.54085 -76.89061 27989 ft 320 kts 240°
2026-05-07 14:53 39.52850 -76.91426 27996 ft 320 kts 240°
2026-05-07 14:53 39.51600 -76.93815 27998 ft 320 kts 240°
2026-05-07 14:53 39.50342 -76.96186 27986 ft 322 kts 237°
2026-05-07 14:54 39.48712 -76.98253 28029 ft 333 kts 226°
2026-05-07 14:54 39.46924 -77.00080 27994 ft 331 kts 230°
2026-05-07 14:54 39.45207 -77.02103 27971 ft 327 kts 231°
2026-05-07 14:54 39.43529 -77.04094 27985 ft 328 kts 230°
2026-05-07 14:55 39.41812 -77.06008 27990 ft 330 kts 229°
2026-05-07 14:55 39.40026 -77.07887 27995 ft 331 kts 228°
2026-05-07 14:55 39.36493 -77.11538 27996 ft 332 kts 228°
2026-05-07 14:56 39.34706 -77.13415 27998 ft 331 kts 228°
2026-05-07 14:56 39.32924 -77.15291 28009 ft 331 kts 228°
2026-05-07 14:56 39.29367 -77.19051 28005 ft 331 kts 228°
2026-05-07 14:57 39.25784 -77.22804 28003 ft 331 kts 228°
2026-05-07 14:57 39.23992 -77.24680 27998 ft 331 kts 228°
2026-05-07 14:57 39.22211 -77.26544 27998 ft 331 kts 228°
2026-05-07 14:58 39.20412 -77.28429 27997 ft 332 kts 228°
2026-05-07 14:58 39.18631 -77.30295 27996 ft 331 kts 228°
2026-05-07 14:58 39.15112 -77.33979 28003 ft 331 kts 228°
2026-05-07 14:59 39.13320 -77.35850 27999 ft 331 kts 228°
2026-05-07 14:59 39.11552 -77.37691 28004 ft 333 kts 228°
2026-05-07 14:59 39.09748 -77.39575 27999 ft 332 kts 228°
2026-05-07 14:59 39.07954 -77.41449 27987 ft 332 kts 228°
2026-05-07 15:00 39.06157 -77.43322 27988 ft 332 kts 228°
2026-05-07 15:00 39.04358 -77.45193 27991 ft 332 kts 228°
2026-05-07 15:00 39.02559 -77.47065 27993 ft 333 kts 228°
2026-05-07 15:00 39.00761 -77.48935 27991 ft 333 kts 228°
2026-05-07 15:01 38.98960 -77.50810 27993 ft 333 kts 228°
2026-05-07 15:01 38.97189 -77.52647 27986 ft 333 kts 228°
2026-05-07 15:01 38.95376 -77.54527 27995 ft 333 kts 228°
2026-05-07 15:01 38.93575 -77.56395 27996 ft 333 kts 228°
2026-05-07 15:02 38.91768 -77.58268 27989 ft 334 kts 228°
2026-05-07 15:02 38.89986 -77.60115 27985 ft 333 kts 228°
2026-05-07 15:02 38.88181 -77.61984 28000 ft 334 kts 228°
2026-05-07 15:02 38.86366 -77.63861 27985 ft 334 kts 228°
2026-05-07 15:03 38.84560 -77.65722 27993 ft 334 kts 228°
2026-05-07 15:03 38.82756 -77.67584 27993 ft 334 kts 228°
2026-05-07 15:03 38.80938 -77.69464 27992 ft 334 kts 228°
2026-05-07 15:03 38.79132 -77.71328 27993 ft 333 kts 227°
2026-05-07 15:04 38.75512 -77.75060 27988 ft 335 kts 227°
2026-05-07 15:04 38.73695 -77.76930 27990 ft 335 kts 227°
2026-05-07 15:04 38.71887 -77.78788 27989 ft 336 kts 227°
2026-05-07 15:05 38.68233 -77.82545 28006 ft 336 kts 227°
2026-05-07 15:05 38.66415 -77.84415 27989 ft 334 kts 227°
2026-05-07 15:05 38.64685 -77.86298 28011 ft 329 kts 233°
2026-05-07 15:06 38.61904 -77.90880 28023 ft 327 kts 236°
2026-05-07 15:06 38.60435 -77.93106 27990 ft 327 kts 236°
2026-05-07 15:06 38.58999 -77.95347 28001 ft 326 kts 237°
2026-05-07 15:07 38.56239 -77.99934 27998 ft 325 kts 238°
2026-05-07 15:07 38.54878 -78.02249 27997 ft 326 kts 238°
2026-05-07 15:07 38.53504 -78.04549 28001 ft 326 kts 238°
2026-05-07 15:08 38.50748 -78.09125 28000 ft 325 kts 238°
2026-05-07 15:08 38.49364 -78.11419 27985 ft 326 kts 238°
2026-05-07 15:08 38.47982 -78.13713 27988 ft 325 kts 237°
2026-05-07 15:09 38.46615 -78.15980 27994 ft 329 kts 235°
2026-05-07 15:09 38.45202 -78.18327 27986 ft 338 kts 234°
2026-05-07 15:09 38.43739 -78.20755 27972 ft 340 kts 234°
2026-05-07 15:09 38.42355 -78.23135 27980 ft 338 kts 239°
2026-05-07 15:10 38.41278 -78.25416 27985 ft 339 kts 239°
2026-05-07 15:10 38.40022 -78.27943 27973 ft 338 kts 238°
2026-05-07 15:10 38.38756 -78.30463 27974 ft 337 kts 238°
2026-05-07 15:10 38.37496 -78.32997 27962 ft 338 kts 239°
2026-05-07 15:11 38.36253 -78.35537 27981 ft 338 kts 239°
2026-05-07 15:11 38.35018 -78.38075 27966 ft 338 kts 239°
2026-05-07 15:11 38.33778 -78.40621 27974 ft 338 kts 239°
2026-05-07 15:11 38.32546 -78.43147 27969 ft 337 kts 239°
2026-05-07 15:12 38.31298 -78.45696 27970 ft 338 kts 239°
2026-05-07 15:12 38.30057 -78.48225 27969 ft 336 kts 239°
2026-05-07 15:12 38.28814 -78.50753 27971 ft 336 kts 239°
2026-05-07 15:12 38.27591 -78.53247 27979 ft 337 kts 239°
2026-05-07 15:13 38.26359 -78.55765 27968 ft 335 kts 239°
2026-05-07 15:13 38.25123 -78.58280 27980 ft 335 kts 239°
2026-05-07 15:13 38.23882 -78.60801 27968 ft 336 kts 239°
2026-05-07 15:13 38.22643 -78.63317 27989 ft 335 kts 239°
2026-05-07 15:14 38.21429 -78.65781 27978 ft 334 kts 239°
2026-05-07 15:14 38.20173 -78.68319 27990 ft 334 kts 239°
2026-05-07 15:14 38.18938 -78.70824 27972 ft 332 kts 239°
2026-05-07 15:14 38.17726 -78.73277 27988 ft 333 kts 239°
2026-05-07 15:15 38.16490 -78.75789 27943 ft 335 kts 239°
2026-05-07 15:15 38.15255 -78.78285 28021 ft 333 kts 239°
2026-05-07 15:15 38.14023 -78.80782 27977 ft 334 kts 239°
2026-05-07 15:15 38.12791 -78.83274 27971 ft 331 kts 239°
2026-05-07 15:16 38.11562 -78.85749 27994 ft 332 kts 239°
2026-05-07 15:16 38.10325 -78.88231 27961 ft 331 kts 239°
2026-05-07 15:16 38.09100 -78.90699 27980 ft 330 kts 239°
2026-05-07 15:16 38.07874 -78.93170 27971 ft 331 kts 239°
2026-05-07 15:17 38.06660 -78.95616 27968 ft 330 kts 239°
2026-05-07 15:17 38.05427 -78.98094 27978 ft 330 kts 239°
2026-05-07 15:17 38.04619 -78.99720 27972 ft 330 kts 239°
2026-05-07 15:17 38.02978 -79.03017 27969 ft 329 kts 239°
2026-05-07 15:18 38.02170 -79.04641 27978 ft 329 kts 239°
2026-05-07 15:18 38.00951 -79.07083 27967 ft 329 kts 239°
2026-05-07 15:18 37.99331 -79.10321 27970 ft 328 kts 240°
2026-05-07 15:18 37.98087 -79.12805 27983 ft 337 kts 239°
2026-05-07 15:19 37.96831 -79.15319 27961 ft 337 kts 240°
2026-05-07 15:19 37.96055 -79.16876 27966 ft 337 kts 240°
2026-05-07 15:19 37.94800 -79.19388 27976 ft 336 kts 240°
2026-05-07 15:19 37.93546 -79.21883 27974 ft 336 kts 239°
2026-05-07 15:20 37.91884 -79.25185 27968 ft 335 kts 240°
2026-05-07 15:20 37.91054 -79.26838 27979 ft 335 kts 240°
2026-05-07 15:20 37.89807 -79.29326 27970 ft 334 kts 240°
2026-05-07 15:20 37.88562 -79.31806 27975 ft 334 kts 240°
2026-05-07 15:21 37.87314 -79.34290 27975 ft 333 kts 240°
2026-05-07 15:21 37.86068 -79.36759 27976 ft 333 kts 240°
2026-05-07 15:21 37.84817 -79.39237 27971 ft 333 kts 240°
2026-05-07 15:21 37.83571 -79.41695 27978 ft 332 kts 240°
2026-05-07 15:22 37.82328 -79.44163 27978 ft 332 kts 240°
2026-05-07 15:22 37.81087 -79.46623 27963 ft 332 kts 240°
2026-05-07 15:22 37.79842 -79.49077 27972 ft 331 kts 240°
2026-05-07 15:22 37.78597 -79.51534 27969 ft 332 kts 240°
2026-05-07 15:23 37.77350 -79.53991 27981 ft 332 kts 240°
2026-05-07 15:23 37.76109 -79.56439 27969 ft 329 kts 240°
2026-05-07 15:23 37.74869 -79.58877 27981 ft 330 kts 240°
2026-05-07 15:23 37.73625 -79.61318 27959 ft 331 kts 240°
2026-05-07 15:24 37.72382 -79.63760 27970 ft 330 kts 240°
2026-05-07 15:24 37.71142 -79.66200 27969 ft 330 kts 240°
2026-05-07 15:24 37.69904 -79.68634 27980 ft 329 kts 240°
2026-05-07 15:24 37.68664 -79.71075 27980 ft 330 kts 240°
2026-05-07 15:25 37.67424 -79.73498 27970 ft 329 kts 240°
2026-05-07 15:25 37.66203 -79.75887 27958 ft 326 kts 240°
2026-05-07 15:25 37.64971 -79.78316 27994 ft 330 kts 240°
2026-05-07 15:25 37.63730 -79.80750 27944 ft 328 kts 240°
2026-05-07 15:26 37.62499 -79.83167 27974 ft 328 kts 240°
2026-05-07 15:26 37.61256 -79.85595 27989 ft 330 kts 240°
2026-05-07 15:26 37.60012 -79.88026 27974 ft 329 kts 240°
2026-05-07 15:26 37.58762 -79.90455 27964 ft 330 kts 240°
2026-05-07 15:27 37.57519 -79.92875 27972 ft 329 kts 240°
2026-05-07 15:27 37.56289 -79.95264 27969 ft 330 kts 239°
2026-05-07 15:27 37.55052 -79.97669 27983 ft 330 kts 240°
2026-05-07 15:27 37.53803 -80.00101 27970 ft 329 kts 240°
2026-05-07 15:28 37.52553 -80.02535 27991 ft 328 kts 239°
2026-05-07 15:28 37.51318 -80.04939 27975 ft 326 kts 240°
2026-05-07 15:28 37.50076 -80.07353 27994 ft 329 kts 240°
2026-05-07 15:28 37.48830 -80.09767 27975 ft 328 kts 240°
2026-05-07 15:29 37.47586 -80.12179 27975 ft 328 kts 239°
2026-05-07 15:29 37.46344 -80.14591 27996 ft 329 kts 240°
2026-05-07 15:29 37.45098 -80.17012 27975 ft 329 kts 240°
2026-05-07 15:29 37.43852 -80.19424 27984 ft 329 kts 240°
2026-05-07 15:30 37.42601 -80.21839 27984 ft 330 kts 240°
2026-05-07 15:30 37.41335 -80.24257 27973 ft 330 kts 240°
2026-05-07 15:30 37.40078 -80.26678 27989 ft 330 kts 240°
2026-05-07 15:30 37.38815 -80.29112 27992 ft 331 kts 240°
2026-05-07 15:31 37.37562 -80.31538 27992 ft 331 kts 240°
2026-05-07 15:31 37.36308 -80.33963 27991 ft 332 kts 240°
2026-05-07 15:31 37.35053 -80.36390 27988 ft 331 kts 240°
2026-05-07 15:31 37.33790 -80.38822 27998 ft 331 kts 240°
2026-05-07 15:32 37.32542 -80.41213 27994 ft 331 kts 240°
2026-05-07 15:32 37.31280 -80.43632 27999 ft 332 kts 240°
2026-05-07 15:32 37.28757 -80.48477 28007 ft 332 kts 240°
2026-05-07 15:33 37.27487 -80.50917 27999 ft 332 kts 240°
2026-05-07 15:33 37.26237 -80.53365 28008 ft 333 kts 241°
2026-05-07 15:33 37.25048 -80.55859 27978 ft 333 kts 242°
2026-05-07 15:33 37.23878 -80.58367 27986 ft 333 kts 242°
2026-05-07 15:34 37.21499 -80.63366 27980 ft 333 kts 242°
2026-05-07 15:34 37.20303 -80.65845 27987 ft 332 kts 241°
2026-05-07 15:34 37.19104 -80.68334 27984 ft 334 kts 242°
2026-05-07 15:35 37.17901 -80.70834 27979 ft 335 kts 241°
2026-05-07 15:35 37.16695 -80.73324 27977 ft 335 kts 241°
2026-05-07 15:35 37.15484 -80.75823 27976 ft 334 kts 241°
2026-05-07 15:35 37.14278 -80.78312 27984 ft 334 kts 241°
2026-05-07 15:36 37.13068 -80.80799 27981 ft 334 kts 241°
2026-05-07 15:36 37.11865 -80.83288 27975 ft 334 kts 242°
2026-05-07 15:36 37.10662 -80.85779 27982 ft 333 kts 241°
2026-05-07 15:36 37.09457 -80.88266 27998 ft 334 kts 242°
2026-05-07 15:37 37.08248 -80.90764 27979 ft 335 kts 242°
2026-05-07 15:37 37.07038 -80.93251 27990 ft 334 kts 242°
2026-05-07 15:37 37.05846 -80.95708 27997 ft 334 kts 242°
2026-05-07 15:37 37.04648 -80.98181 27994 ft 335 kts 241°
2026-05-07 15:38 37.03428 -81.00686 27988 ft 335 kts 241°
2026-05-07 15:38 37.02220 -81.03160 27989 ft 335 kts 241°
2026-05-07 15:38 37.01002 -81.05657 27994 ft 335 kts 241°
2026-05-07 15:38 36.99793 -81.08134 27993 ft 334 kts 241°
2026-05-07 15:39 36.98571 -81.10623 27982 ft 334 kts 241°
2026-05-07 15:39 36.97360 -81.13105 28006 ft 335 kts 241°
2026-05-07 15:39 36.94943 -81.18069 28005 ft 335 kts 242°
2026-05-07 15:40 36.93722 -81.20559 27996 ft 335 kts 241°
2026-05-07 15:40 36.92502 -81.23039 28002 ft 335 kts 242°
2026-05-07 15:40 36.90080 -81.27983 27995 ft 335 kts 241°
2026-05-07 15:41 36.87630 -81.32972 28011 ft 335 kts 241°
2026-05-07 15:41 36.86426 -81.35417 27999 ft 335 kts 241°
2026-05-07 15:41 36.85184 -81.37926 28013 ft 335 kts 241°
2026-05-07 15:42 36.82760 -81.42865 28000 ft 338 kts 241°
2026-05-07 15:42 36.80326 -81.47850 28008 ft 338 kts 241°
2026-05-07 15:43 36.79104 -81.50346 27993 ft 337 kts 241°
2026-05-07 15:43 36.77885 -81.52835 27992 ft 335 kts 241°
2026-05-07 15:43 36.75460 -81.57791 27996 ft 336 kts 241°
2026-05-07 15:44 36.74232 -81.60294 27993 ft 337 kts 241°
2026-05-07 15:44 36.73008 -81.62774 27994 ft 336 kts 241°
2026-05-07 15:44 36.71761 -81.65236 27992 ft 336 kts 240°
2026-05-07 15:44 36.70495 -81.67689 27985 ft 339 kts 240°
2026-05-07 15:45 36.69216 -81.70163 27995 ft 338 kts 240°
2026-05-07 15:45 36.67948 -81.72625 28018 ft 337 kts 240°
2026-05-07 15:45 36.66692 -81.75071 27981 ft 338 kts 240°
2026-05-07 15:45 36.65414 -81.77549 27993 ft 337 kts 240°
2026-05-07 15:46 36.62884 -81.82469 27984 ft 337 kts 240°
2026-05-07 15:46 36.61617 -81.84933 27994 ft 338 kts 240°
2026-05-07 15:46 36.60350 -81.87397 27985 ft 339 kts 240°
2026-05-07 15:47 36.59078 -81.89872 28003 ft 339 kts 240°
2026-05-07 15:47 36.57812 -81.92330 27985 ft 337 kts 240°
2026-05-07 15:47 36.56545 -81.94786 27999 ft 338 kts 240°
2026-05-07 15:47 36.55276 -81.97237 27988 ft 337 kts 240°
2026-05-07 15:48 36.53996 -81.99708 27992 ft 338 kts 240°
2026-05-07 15:48 36.52725 -82.02165 27989 ft 337 kts 240°
2026-05-07 15:48 36.51458 -82.04611 27985 ft 336 kts 240°
2026-05-07 15:48 36.50196 -82.07051 27990 ft 338 kts 240°
2026-05-07 15:49 36.48935 -82.09485 27981 ft 337 kts 240°
2026-05-07 15:49 36.47663 -82.11937 27979 ft 337 kts 240°
2026-05-07 15:49 36.46392 -82.14389 27987 ft 338 kts 240°
2026-05-07 15:49 36.45127 -82.16825 27981 ft 337 kts 240°
2026-05-07 15:50 36.43848 -82.19283 27981 ft 337 kts 240°
2026-05-07 15:50 36.42576 -82.21727 27978 ft 337 kts 240°
2026-05-07 15:50 36.41304 -82.24169 27981 ft 337 kts 240°
2026-05-07 15:50 36.40029 -82.26618 27997 ft 337 kts 240°
2026-05-07 15:51 36.38755 -82.29063 27988 ft 337 kts 240°
2026-05-07 15:51 36.37483 -82.31502 27991 ft 337 kts 240°
2026-05-07 15:51 36.36210 -82.33938 27994 ft 337 kts 240°
2026-05-07 15:51 36.34933 -82.36379 28000 ft 337 kts 240°
2026-05-07 15:52 36.33655 -82.38821 27985 ft 337 kts 240°
2026-05-07 15:52 36.32380 -82.41259 27991 ft 337 kts 240°
2026-05-07 15:52 36.31105 -82.43697 28006 ft 337 kts 240°
2026-05-07 15:53 36.28548 -82.48577 27997 ft 336 kts 240°
2026-05-07 15:53 36.26019 -82.53398 27999 ft 336 kts 240°
2026-05-07 15:54 36.23468 -82.58255 28016 ft 336 kts 240°
2026-05-07 15:54 36.20918 -82.63093 28014 ft 335 kts 240°
2026-05-07 15:55 36.18371 -82.67934 28013 ft 335 kts 240°
2026-05-07 15:55 36.15816 -82.72767 28002 ft 335 kts 240°
2026-05-07 15:56 36.13267 -82.77585 28015 ft 334 kts 240°
2026-05-07 15:56 36.10726 -82.82397 28012 ft 334 kts 240°
2026-05-07 15:57 36.08173 -82.87206 27996 ft 334 kts 240°
2026-05-07 15:57 36.05634 -82.92002 28008 ft 333 kts 240°
2026-05-07 15:58 36.03099 -82.96761 28000 ft 332 kts 240°
2026-05-07 15:58 36.00557 -83.01529 28020 ft 333 kts 240°
2026-05-07 15:59 35.97996 -83.06340 28021 ft 341 kts 240°
2026-05-07 15:59 35.96685 -83.08800 27995 ft 343 kts 240°
2026-05-07 15:59 35.95373 -83.11258 28003 ft 342 kts 240°
2026-05-07 16:00 35.92769 -83.16127 28024 ft 342 kts 240°
2026-05-07 16:00 35.90193 -83.21031 28028 ft 340 kts 242°
2026-05-07 16:01 35.87770 -83.26039 28023 ft 340 kts 242°
2026-05-07 16:01 35.85334 -83.31022 28012 ft 337 kts 242°
2026-05-07 16:02 35.82878 -83.35980 27989 ft 338 kts 242°
2026-05-07 16:02 35.80432 -83.40916 28012 ft 336 kts 242°
2026-05-07 16:03 35.77994 -83.45834 28019 ft 337 kts 242°
2026-05-07 16:03 35.75959 -83.49930 28019 ft 336 kts 242°
2026-05-07 16:04 35.73514 -83.54848 27995 ft 336 kts 241°
2026-05-07 16:04 35.70942 -83.59638 28012 ft 336 kts 239°
2026-05-07 16:05 35.68334 -83.64385 28001 ft 337 kts 240°
2026-05-07 16:05 35.67032 -83.66799 27999 ft 335 kts 240°
2026-05-07 16:05 35.65751 -83.69187 28019 ft 335 kts 240°
2026-05-07 16:05 35.64462 -83.71579 28000 ft 335 kts 240°
2026-05-07 16:06 35.63179 -83.73949 28020 ft 334 kts 240°
2026-05-07 16:06 35.61891 -83.76318 27990 ft 331 kts 240°
2026-05-07 16:06 35.60610 -83.78677 28045 ft 335 kts 240°
2026-05-07 16:06 35.59316 -83.81067 27969 ft 336 kts 240°
2026-05-07 16:07 35.58048 -83.83404 27987 ft 335 kts 240°
2026-05-07 16:07 35.55438 -83.88215 28014 ft 335 kts 240°
2026-05-07 16:08 35.52851 -83.92975 28001 ft 337 kts 240°
2026-05-07 16:08 35.50266 -83.97718 27998 ft 336 kts 240°
2026-05-07 16:09 35.47663 -84.02505 27985 ft 335 kts 240°
2026-05-07 16:09 35.45058 -84.07266 28002 ft 336 kts 240°
2026-05-07 16:10 35.42454 -84.12031 27990 ft 337 kts 240°
2026-05-07 16:10 35.39838 -84.16809 28025 ft 337 kts 240°
2026-05-07 16:10 35.38528 -84.19194 27997 ft 338 kts 240°
2026-05-07 16:11 35.37217 -84.21587 28020 ft 338 kts 240°
2026-05-07 16:11 35.34588 -84.26378 28015 ft 338 kts 240°
2026-05-07 16:12 35.31964 -84.31153 28002 ft 340 kts 240°
2026-05-07 16:12 35.29319 -84.35955 28001 ft 341 kts 240°
2026-05-07 16:13 35.26664 -84.40772 28028 ft 343 kts 240°
2026-05-07 16:13 35.24000 -84.45594 28026 ft 342 kts 240°
2026-05-07 16:14 35.21328 -84.50430 28033 ft 343 kts 240°
2026-05-07 16:14 35.18646 -84.55277 28001 ft 345 kts 240°
2026-05-07 16:15 35.15970 -84.60104 28028 ft 344 kts 240°
2026-05-07 16:15 35.13306 -84.64905 28000 ft 344 kts 240°
2026-05-07 16:16 35.10600 -84.69772 28022 ft 346 kts 240°
2026-05-07 16:16 35.07942 -84.74553 28021 ft 345 kts 240°
2026-05-07 16:17 35.05237 -84.79405 28014 ft 345 kts 240°
2026-05-07 16:17 35.02532 -84.84257 28022 ft 346 kts 240°
2026-05-07 16:18 34.99810 -84.89118 28026 ft 347 kts 240°
2026-05-07 16:18 34.97088 -84.93975 28029 ft 346 kts 240°
2026-05-07 16:19 34.94371 -84.98826 28031 ft 346 kts 240°
2026-05-07 16:19 34.91655 -85.03672 28033 ft 347 kts 240°
2026-05-07 16:20 34.88927 -85.08532 28028 ft 347 kts 240°
2026-05-07 16:20 34.86208 -85.13349 28041 ft 348 kts 240°
2026-05-07 16:21 34.83479 -85.18195 28029 ft 347 kts 240°
2026-05-07 16:21 34.80740 -85.23056 28039 ft 348 kts 240°
2026-05-07 16:22 34.77994 -85.27911 28043 ft 348 kts 239°
2026-05-07 16:22 34.74985 -85.32568 28025 ft 351 kts 236°
2026-05-07 16:23 34.71915 -85.37162 28034 ft 350 kts 237°
2026-05-07 16:23 34.68911 -85.41802 28030 ft 350 kts 237°
2026-05-07 16:24 34.65891 -85.46456 28013 ft 349 kts 237°
2026-05-07 16:24 34.62861 -85.51107 28017 ft 352 kts 237°
2026-05-07 16:25 34.59851 -85.55727 28049 ft 351 kts 237°
2026-05-07 16:25 34.56811 -85.60384 28045 ft 351 kts 237°
2026-05-07 16:26 34.53766 -85.65041 28035 ft 352 kts 237°
2026-05-07 16:26 34.50715 -85.69707 28036 ft 353 kts 237°
2026-05-07 16:27 34.47657 -85.74378 28041 ft 353 kts 237°
2026-05-07 16:27 34.44595 -85.79046 28040 ft 354 kts 237°
2026-05-07 16:28 34.41519 -85.83725 28035 ft 354 kts 237°
2026-05-07 16:28 34.38449 -85.88393 28041 ft 355 kts 237°
2026-05-07 16:29 34.35368 -85.93070 28041 ft 355 kts 237°
2026-05-07 16:29 34.32307 -85.97716 28037 ft 355 kts 237°
2026-05-07 16:30 34.29219 -86.02390 28036 ft 355 kts 237°
2026-05-07 16:30 34.26127 -86.07059 28040 ft 355 kts 237°
2026-05-07 16:31 34.23042 -86.11722 28045 ft 355 kts 237°
2026-05-07 16:31 34.19951 -86.16382 28048 ft 356 kts 237°
2026-05-07 16:32 34.16855 -86.21043 28047 ft 356 kts 237°
2026-05-07 16:32 34.13759 -86.25703 28049 ft 355 kts 237°
2026-05-07 16:33 34.10664 -86.30359 28047 ft 355 kts 237°
2026-05-07 16:33 34.07563 -86.35007 28044 ft 356 kts 237°
2026-05-07 16:34 34.04484 -86.39618 28053 ft 354 kts 237°
2026-05-07 16:34 34.01392 -86.44248 28047 ft 354 kts 237°
2026-05-07 16:35 33.98298 -86.48876 28059 ft 357 kts 237°
2026-05-07 16:35 33.95176 -86.53531 28048 ft 357 kts 236°
2026-05-07 16:36 33.92042 -86.58206 28050 ft 358 kts 236°
2026-05-07 16:36 33.88912 -86.62864 28057 ft 357 kts 236°
2026-05-07 16:37 33.85783 -86.67518 28055 ft 358 kts 236°
2026-05-07 16:37 33.82642 -86.72180 28056 ft 358 kts 236°
2026-05-07 16:38 33.79499 -86.76836 28058 ft 358 kts 236°
2026-05-07 16:38 33.76357 -86.81491 28062 ft 358 kts 236°
2026-05-07 16:39 33.73224 -86.86134 28067 ft 357 kts 236°
2026-05-07 16:39 33.70107 -86.90736 28064 ft 358 kts 236°
2026-05-07 16:40 33.66959 -86.95381 28061 ft 358 kts 236°
2026-05-07 16:40 33.63814 -87.00013 28072 ft 358 kts 236°
2026-05-07 16:41 33.60668 -87.04647 28064 ft 358 kts 236°
2026-05-07 16:41 33.57515 -87.09279 28068 ft 358 kts 236°
2026-05-07 16:42 33.54364 -87.13907 28077 ft 358 kts 236°
2026-05-07 16:42 33.51210 -87.18528 28078 ft 358 kts 236°
2026-05-07 16:43 33.48061 -87.23139 28069 ft 358 kts 236°
2026-05-07 16:43 33.44897 -87.27763 28073 ft 358 kts 236°
2026-05-07 16:44 33.41755 -87.32354 28072 ft 358 kts 236°
2026-05-07 16:44 33.38592 -87.36966 28067 ft 359 kts 236°
2026-05-07 16:45 33.35439 -87.41557 28071 ft 359 kts 236°
2026-05-07 16:45 33.32282 -87.46157 28065 ft 358 kts 236°
2026-05-07 16:46 33.29106 -87.50778 28069 ft 358 kts 236°
2026-05-07 16:46 33.25933 -87.55378 28067 ft 358 kts 236°
2026-05-07 16:47 33.22757 -87.59975 28064 ft 358 kts 236°
2026-05-07 16:47 33.19581 -87.64582 28062 ft 359 kts 236°
2026-05-07 16:48 33.16397 -87.69184 28067 ft 359 kts 236°
2026-05-07 16:48 33.13211 -87.73783 28069 ft 360 kts 236°
2026-05-07 16:49 33.10034 -87.78363 28062 ft 361 kts 236°
2026-05-07 16:49 33.07365 -87.82206 28068 ft 361 kts 236°
2026-05-07 16:50 33.03632 -87.87572 28066 ft 361 kts 236°
2026-05-07 16:50 33.00417 -87.92198 28080 ft 363 kts 236°
2026-05-07 16:51 32.97719 -87.96067 28076 ft 362 kts 236°
2026-05-07 16:51 32.94529 -88.00641 28074 ft 363 kts 236°
2026-05-07 16:52 32.91301 -88.05261 28078 ft 361 kts 235°
2026-05-07 16:52 32.88092 -88.09859 28076 ft 362 kts 235°
2026-05-07 16:53 32.84863 -88.14474 28074 ft 362 kts 235°
2026-05-07 16:53 32.81635 -88.19074 28074 ft 364 kts 235°
2026-05-07 16:54 32.78396 -88.23679 28089 ft 363 kts 235°
2026-05-07 16:54 32.75145 -88.28310 28083 ft 363 kts 235°
2026-05-07 16:55 32.71903 -88.32921 28088 ft 364 kts 235°
2026-05-07 16:55 32.68673 -88.37504 28083 ft 364 kts 235°
2026-05-07 16:56 32.65413 -88.42113 28085 ft 364 kts 235°
2026-05-07 16:56 32.60519 -88.49039 28077 ft 366 kts 235°
2026-05-07 16:57 32.57253 -88.53658 28085 ft 365 kts 235°
2026-05-07 16:57 32.53998 -88.58269 28087 ft 365 kts 235°
2026-05-07 16:58 32.50727 -88.62882 28080 ft 365 kts 235°
2026-05-07 16:58 32.47455 -88.67489 28086 ft 365 kts 235°
2026-05-07 16:59 32.44200 -88.72058 28082 ft 365 kts 234°
2026-05-07 16:59 32.40938 -88.76639 28086 ft 365 kts 234°
2026-05-07 17:00 32.37609 -88.81207 28083 ft 367 kts 230°
2026-05-07 17:00 32.33518 -88.84964 28075 ft 375 kts 223°
2026-05-07 17:01 32.29398 -88.88702 28082 ft 372 kts 226°
2026-05-07 17:01 32.25422 -88.92593 28083 ft 373 kts 226°
2026-05-07 17:02 32.21428 -88.96495 28080 ft 372 kts 226°
2026-05-07 17:02 32.17416 -89.00375 28084 ft 373 kts 226°
2026-05-07 17:03 32.13406 -89.04249 28082 ft 372 kts 226°
2026-05-07 17:03 32.09393 -89.08131 28084 ft 373 kts 226°
2026-05-07 17:04 32.05407 -89.11981 28082 ft 373 kts 226°
2026-05-07 17:04 32.01403 -89.15840 28077 ft 372 kts 226°
2026-05-07 17:05 31.97367 -89.19726 28096 ft 378 kts 225°
2026-05-07 17:05 31.93285 -89.23654 28066 ft 378 kts 225°
2026-05-07 17:06 31.89207 -89.27576 28075 ft 378 kts 225°
2026-05-07 17:06 31.85128 -89.31485 28072 ft 378 kts 225°
2026-05-07 17:07 31.81044 -89.35398 28073 ft 378 kts 225°
2026-05-07 17:07 31.76962 -89.39304 28072 ft 378 kts 225°
2026-05-07 17:08 31.72904 -89.43185 28074 ft 378 kts 225°
2026-05-07 17:08 31.68823 -89.47086 28088 ft 378 kts 225°
2026-05-07 17:09 31.64733 -89.50985 28078 ft 378 kts 225°
2026-05-07 17:09 31.60659 -89.54876 28076 ft 378 kts 225°
2026-05-07 17:10 31.56572 -89.58768 28084 ft 378 kts 225°
2026-05-07 17:10 31.52479 -89.62661 28085 ft 378 kts 225°
2026-05-07 17:11 31.48393 -89.66547 28084 ft 378 kts 225°
2026-05-07 17:11 31.44300 -89.70436 28086 ft 379 kts 225°
2026-05-07 17:12 31.40225 -89.74303 28080 ft 379 kts 225°
2026-05-07 17:12 31.36136 -89.78176 28082 ft 378 kts 225°
2026-05-07 17:13 31.34091 -89.80109 27737 ft 372 kts 225°
2026-05-07 17:13 31.32116 -89.81968 27578 ft 358 kts 225°
2026-05-07 17:13 31.30175 -89.83802 27088 ft 361 kts 225°
2026-05-07 17:13 31.28216 -89.85662 26613 ft 364 kts 225°
2026-05-07 17:14 31.26242 -89.87536 26094 ft 368 kts 225°
2026-05-07 17:14 31.24249 -89.89420 25632 ft 369 kts 225°
2026-05-07 17:14 31.22265 -89.91289 25143 ft 371 kts 225°
2026-05-07 17:14 31.20236 -89.93196 24610 ft 369 kts 225°
2026-05-07 17:15 31.18242 -89.95072 24175 ft 365 kts 225°
2026-05-07 17:15 31.16290 -89.96911 23625 ft 364 kts 225°
2026-05-07 17:15 31.14327 -89.98760 23192 ft 360 kts 224°
2026-05-07 17:15 31.12385 -90.00587 22683 ft 358 kts 225°
2026-05-07 17:16 31.10455 -90.02401 22216 ft 354 kts 224°
2026-05-07 17:16 31.08558 -90.04185 21772 ft 350 kts 224°
2026-05-07 17:16 31.06664 -90.05964 21266 ft 349 kts 224°
2026-05-07 17:16 31.04780 -90.07733 20845 ft 346 kts 224°
2026-05-07 17:17 31.02905 -90.09495 20352 ft 345 kts 224°
2026-05-07 17:17 31.01142 -90.11148 19916 ft 342 kts 224°
2026-05-07 17:17 30.99302 -90.12871 19490 ft 339 kts 224°
2026-05-07 17:17 30.97471 -90.14586 19002 ft 338 kts 224°
2026-05-07 17:18 30.95643 -90.16300 18587 ft 335 kts 224°
2026-05-07 17:18 30.93823 -90.18007 18119 ft 334 kts 224°
2026-05-07 17:18 30.92025 -90.19689 17685 ft 331 kts 224°
2026-05-07 17:18 30.90194 -90.21324 17248 ft 333 kts 217°
2026-05-07 17:19 30.87963 -90.22259 16791 ft 352 kts 197°
2026-05-07 17:19 30.85506 -90.22337 16295 ft 363 kts 185°
2026-05-07 17:19 30.82985 -90.22183 15806 ft 362 kts 184°
2026-05-07 17:19 30.80475 -90.22029 15332 ft 359 kts 185°
2026-05-07 17:20 30.77969 -90.21911 14848 ft 356 kts 185°
2026-05-07 17:20 30.75513 -90.21766 14368 ft 351 kts 184°
2026-05-07 17:20 30.73102 -90.21596 13917 ft 345 kts 183°
2026-05-07 17:20 30.70725 -90.21420 13438 ft 340 kts 183°
2026-05-07 17:21 30.68369 -90.21243 13011 ft 335 kts 183°
2026-05-07 17:21 30.66055 -90.21075 12557 ft 332 kts 182°
2026-05-07 17:21 30.63762 -90.20908 12117 ft 329 kts 182°
2026-05-07 17:21 30.61493 -90.20742 11680 ft 325 kts 182°
2026-05-07 17:22 30.59241 -90.20583 11253 ft 321 kts 182°
2026-05-07 17:22 30.57051 -90.20422 10836 ft 317 kts 182°
2026-05-07 17:22 30.54856 -90.20262 10430 ft 314 kts 182°
2026-05-07 17:22 30.52682 -90.20099 10013 ft 312 kts 181°
2026-05-07 17:23 30.50524 -90.19929 9598 ft 308 kts 181°
2026-05-07 17:23 30.48395 -90.19778 9198 ft 304 kts 182°
2026-05-07 17:23 30.46289 -90.19633 8797 ft 301 kts 181°
2026-05-07 17:23 30.44205 -90.19483 8400 ft 298 kts 181°
2026-05-07 17:24 30.42139 -90.19335 8007 ft 295 kts 181°
2026-05-07 17:24 30.40135 -90.19187 7622 ft 292 kts 181°
2026-05-07 17:24 30.38083 -90.19037 7229 ft 289 kts 181°
2026-05-07 17:24 30.36108 -90.18900 6856 ft 286 kts 181°
2026-05-07 17:25 30.34130 -90.18757 6457 ft 284 kts 181°
2026-05-07 17:25 30.32164 -90.18613 6093 ft 282 kts 180°
2026-05-07 17:25 30.31032 -90.18530 5893 ft 280 kts 181°
2026-05-07 17:38 30.30891 -90.18520 5875 ft 280 kts 181°
2026-05-07 17:39 30.28989 -90.18381 5484 ft 278 kts 180°
2026-05-07 17:39 30.27064 -90.18239 5103 ft 277 kts 180°
2026-05-07 17:39 30.25138 -90.18101 4698 ft 277 kts 180°
2026-05-07 17:39 30.23222 -90.17961 4348 ft 274 kts 180°
2026-05-07 17:40 30.21338 -90.17823 4177 ft 265 kts 180°
2026-05-07 17:40 30.19550 -90.17676 3986 ft 259 kts 180°
2026-05-07 17:40 30.17774 -90.17508 3934 ft 246 kts 179°
2026-05-07 17:40 30.16125 -90.17346 3907 ft 234 kts 180°
2026-05-07 17:41 30.14545 -90.17195 3825 ft 227 kts 180°
2026-05-07 17:41 30.13005 -90.16868 3715 ft 226 kts 161°
2026-05-07 17:41 30.11590 -90.16065 3772 ft 229 kts 156°
2026-05-07 17:41 30.10171 -90.15160 3745 ft 234 kts 152°
2026-05-07 17:42 30.09012 -90.13825 3661 ft 242 kts 120°
2026-05-07 17:42 30.08451 -90.11990 3627 ft 244 kts 108°
2026-05-07 17:42 30.07971 -90.10101 3503 ft 245 kts 108°
2026-05-07 17:42 30.07489 -90.08218 3383 ft 243 kts 108°
2026-05-07 17:43 30.07010 -90.06350 3363 ft 242 kts 108°
2026-05-07 17:43 30.06526 -90.04467 3269 ft 246 kts 108°
2026-05-07 17:43 30.06041 -90.02586 3187 ft 242 kts 108°
2026-05-07 17:43 30.05560 -90.00738 3135 ft 239 kts 108°
2026-05-07 17:44 30.05086 -89.98918 3139 ft 239 kts 108°
2026-05-07 17:44 30.04573 -89.97084 3037 ft 242 kts 117°
2026-05-07 17:44 30.03509 -89.95628 2829 ft 235 kts 153°
2026-05-07 17:44 30.02002 -89.95174 2770 ft 218 kts 191°
2026-05-07 17:45 30.00684 -89.95864 2846 ft 209 kts 230°
2026-05-07 17:45 29.99870 -89.97190 3396 ft 197 kts 239°
2026-05-07 17:45 29.99091 -89.98531 4134 ft 208 kts 238°
2026-05-07 17:45 29.98248 -89.99989 3510 ft 233 kts 238°
2026-05-07 17:46 29.97331 -90.01615 2904 ft 235 kts 239°
2026-05-07 17:46 29.96479 -90.03083 2913 ft 208 kts 238°
2026-05-07 17:46 29.95704 -90.04401 2843 ft 190 kts 238°
2026-05-07 17:46 29.95117 -90.05695 2643 ft 177 kts 262°
2026-05-07 17:47 29.95012 -90.07061 2514 ft 166 kts 265°
2026-05-07 17:47 29.94880 -90.08380 2464 ft 167 kts 280°
2026-05-07 17:47 29.95212 -90.09669 2494 ft 170 kts 290°
2026-05-07 17:47 29.95556 -90.10984 2514 ft 171 kts 283°
2026-05-07 17:48 29.95844 -90.12356 2245 ft 178 kts 285°
2026-05-07 17:48 29.96177 -90.13698 2017 ft 174 kts 287°
2026-05-07 17:48 29.96505 -90.15026 1793 ft 171 kts 287°
2026-05-07 17:48 29.96817 -90.16342 1571 ft 171 kts 287°
2026-05-07 17:49 29.97137 -90.17663 1373 ft 169 kts 287°
2026-05-07 17:49 29.97439 -90.18930 1107 ft 158 kts 288°
2026-05-07 17:49 29.97720 -90.20092 916 ft 144 kts 288°
2026-05-07 17:49 29.97979 -90.21167 714 ft 137 kts 288°
2026-05-07 17:50 29.98241 -90.22245 577 ft 144 kts 288°
2026-05-07 17:50 29.98513 -90.23368 365 ft 144 kts 287°
2026-05-07 17:50 29.98773 -90.24477 166 ft 144 kts 286°
2026-05-07 17:50 29.99032 -90.25560 10 ft 130 kts 285°
2026-05-07 17:51 29.99237 -90.26399 12 ft 86 kts 285°
2026-05-07 17:51 29.99358 -90.26900 11 ft 44 kts 286°
2026-05-07 17:51 29.99386 -90.27087 12 ft 17 kts 238°
2026-05-07 17:51 29.99308 -90.27119 11 ft 11 kts 168°
2026-05-07 17:52 29.99267 -90.27050 10 ft 11 kts 107°
2026-05-07 17:52 29.99244 -90.26961 12 ft 12 kts 105°
2026-05-07 17:52 29.99222 -90.26863 11 ft 14 kts 105°
2026-05-07 17:52 29.99191 -90.26736 9 ft 18 kts 105°
2026-05-07 17:53 29.99155 -90.26587 10 ft 20 kts 105°
2026-05-07 17:53 29.99124 -90.26455 10 ft 15 kts 105°
2026-05-07 17:53 29.99092 -90.26325 9 ft 18 kts 106°
2026-05-07 17:53 29.99057 -90.26180 9 ft 18 kts 105°
2026-05-07 17:54 29.99025 -90.26049 11 ft 16 kts 105°
2026-05-07 17:54 29.98994 -90.25916 10 ft 16 kts 105°
2026-05-07 17:54 29.98967 -90.25806 13 ft 13 kts 106°
2026-05-07 17:54 29.98947 -90.25724 13 ft 9 kts 105°
2026-05-07 17:55 29.98928 -90.25649 14 ft 11 kts 105°
2026-05-07 17:55 29.98912 -90.25581 12 ft 9 kts 105°
2026-05-07 17:55 29.98892 -90.25529 10 ft 8 kts 154°
2026-05-07 17:55 29.98860 -90.25563 11 ft 6 kts 249°
2026-05-07 17:56 29.98848 -90.25604 11 ft 5 kts 249°
2026-05-07 17:56 29.98824 -90.25618 11 ft 2 kts 183°
2026-05-07 17:56 29.98810 -90.25619 11 ft 1 kts 188°
2026-05-07 17:56 29.98801 -90.25622 11 ft 1 kts 197°
2026-05-07 17:57 29.98800 -90.25622 11 ft 0 kts 197°
2026-05-07 17:57 29.98799 -90.25622 11 ft 0 kts 199°